Time,TemperatureF,DewpointF,PressureIn,WindDirection,WindDirectionDegrees,WindSpeedMPH,WindSpeedGustMPH,Humidity,HourlyPrecipIn,Conditions,Clouds,dailyrainin,SoftwareType,DateUTC
2015-07-06 00:03:00,61.0,56.0,-100.00,North,-9999,0.0,2.0,85,-99.99,,,-99.99,,2015-07-06 08:03:00,
2015-07-06 00:12:00,61.0,56.0,-100.00,North,-9999,0.0,2.0,85,-99.99,,,-99.99,,2015-07-06 08:12:00,
2015-07-06 00:22:00,61.0,56.0,-100.00,North,-9999,0.0,2.0,85,-99.99,,,-99.99,,2015-07-06 08:22:00,
2015-07-06 00:53:00,60.0,56.0,-100.00,WSW,239,1.0,2.0,87,-99.99,,,-99.99,,2015-07-06 08:53:00,
2015-07-06 01:03:00,60.0,56.0,-100.00,WSW,239,1.0,2.0,87,-99.99,,,-99.99,,2015-07-06 09:03:00,
2015-07-06 01:12:00,60.0,56.0,-100.00,WSW,239,1.0,2.0,87,-99.99,,,-99.99,,2015-07-06 09:12:00,
2015-07-06 01:23:00,60.0,56.0,-100.00,WSW,239,1.0,2.0,87,-99.99,,,-99.99,,2015-07-06 09:23:00,
2015-07-06 01:53:00,58.0,55.0,-100.00,South,188,1.0,2.0,91,-99.99,,,-99.99,,2015-07-06 09:53:00,
2015-07-06 02:02:00,58.0,55.0,-100.00,South,188,1.0,2.0,91,-99.99,,,-99.99,,2015-07-06 10:02:00,
2015-07-06 02:12:00,58.0,55.0,-100.00,South,188,1.0,2.0,91,-99.99,,,-99.99,,2015-07-06 10:12:00,
2015-07-06 02:23:00,58.0,55.0,-100.00,South,188,1.0,2.0,91,-99.99,,,-99.99,,2015-07-06 10:23:00,
2015-07-06 02:54:00,56.0,54.0,-100.00,WSW,243,1.0,2.0,94,-99.99,,,-99.99,,2015-07-06 10:54:00,
2015-07-06 03:03:00,56.0,54.0,-100.00,WSW,243,1.0,2.0,94,-99.99,,,-99.99,,2015-07-06 11:03:00,
2015-07-06 03:12:00,56.0,54.0,-100.00,WSW,243,1.0,2.0,94,-99.99,,,-99.99,,2015-07-06 11:12:00,
2015-07-06 03:23:00,56.0,54.0,-100.00,WSW,243,1.0,2.0,94,-99.99,,,-99.99,,2015-07-06 11:23:00,
2015-07-06 03:54:00,53.0,52.0,-100.00,WSW,249,1.0,2.0,96,-99.99,,,-99.99,,2015-07-06 11:54:00,
2015-07-06 04:03:00,53.0,52.0,-100.00,WSW,249,1.0,2.0,96,-99.99,,,-99.99,,2015-07-06 12:03:00,
2015-07-06 04:13:00,53.0,52.0,-100.00,WSW,249,1.0,2.0,96,-99.99,,,-99.99,,2015-07-06 12:13:00,
2015-07-06 04:23:00,53.0,52.0,-100.00,WSW,249,1.0,2.0,96,-99.99,,,-99.99,,2015-07-06 12:23:00,
2015-07-06 04:54:00,51.0,50.0,-100.00,SW,227,1.0,3.0,97,-99.99,,,-99.99,,2015-07-06 12:54:00,
2015-07-06 05:03:00,51.0,50.0,-100.00,SW,227,1.0,3.0,97,-99.99,,,-99.99,,2015-07-06 13:03:00,
2015-07-06 05:12:00,51.0,50.0,-100.00,SW,227,1.0,3.0,97,-99.99,,,-99.99,,2015-07-06 13:12:00,
2015-07-06 05:23:00,51.0,50.0,-100.00,SW,227,1.0,3.0,97,-99.99,,,-99.99,,2015-07-06 13:23:00,
2015-07-06 05:53:00,51.0,50.0,-100.00,WSW,244,1.0,2.0,98,-99.99,,,-99.99,,2015-07-06 13:53:00,
2015-07-06 06:02:00,51.0,50.0,-100.00,WSW,244,1.0,2.0,98,-99.99,,,-99.99,,2015-07-06 14:02:00,
2015-07-06 06:12:00,51.0,50.0,-100.00,WSW,244,1.0,2.0,98,-99.99,,,-99.99,,2015-07-06 14:12:00,
2015-07-06 06:22:00,51.0,50.0,-100.00,WSW,244,1.0,2.0,98,-99.99,,,-99.99,,2015-07-06 14:22:00,
2015-07-06 06:53:00,53.0,53.0,-100.00,WSW,243,1.0,2.0,99,-99.99,,,-99.99,,2015-07-06 14:53:00,
2015-07-06 07:03:00,53.0,53.0,-100.00,WSW,243,1.0,2.0,99,-99.99,,,-99.99,,2015-07-06 15:03:00,
2015-07-06 07:12:00,53.0,53.0,-100.00,WSW,243,1.0,2.0,99,-99.99,,,-99.99,,2015-07-06 15:12:00,
2015-07-06 07:22:00,53.0,53.0,-100.00,WSW,243,1.0,2.0,99,-99.99,,,-99.99,,2015-07-06 15:22:00,
2015-07-06 07:54:00,61.0,60.0,-100.00,SW,222,1.0,2.0,98,-99.99,,,-99.99,,2015-07-06 15:54:00,
2015-07-06 08:03:00,61.0,60.0,-100.00,SW,222,1.0,2.0,98,-99.99,,,-99.99,,2015-07-06 16:03:00,
2015-07-06 08:13:00,61.0,60.0,-100.00,SW,222,1.0,2.0,98,-99.99,,,-99.99,,2015-07-06 16:13:00,
2015-07-06 08:23:00,61.0,60.0,-100.00,SW,222,1.0,2.0,98,-99.99,,,-99.99,,2015-07-06 16:23:00,
2015-07-06 08:54:00,69.0,58.0,-100.00,NNW,344,1.0,4.0,67,-99.99,,,-99.99,,2015-07-06 16:54:00,
2015-07-06 09:03:00,69.0,58.0,-100.00,NNW,344,1.0,4.0,67,-99.99,,,-99.99,,2015-07-06 17:03:00,
2015-07-06 09:13:00,69.0,58.0,-100.00,NNW,344,1.0,-999.0,67,-99.99,,,-99.99,,2015-07-06 17:13:00,
2015-07-06 09:23:00,69.0,58.0,-100.00,NNW,344,1.0,4.0,67,-99.99,,,-99.99,,2015-07-06 17:23:00,
2015-07-06 09:54:00,69.0,57.0,-100.00,NNW,339,2.0,5.0,65,-99.99,,,-99.99,,2015-07-06 17:54:00,
2015-07-06 10:03:00,69.0,57.0,-100.00,NNW,339,2.0,5.0,65,-99.99,,,-99.99,,2015-07-06 18:03:00,
2015-07-06 10:13:00,69.0,57.0,-100.00,NNW,339,2.0,5.0,65,-99.99,,,-99.99,,2015-07-06 18:13:00,
2015-07-06 10:54:00,71.0,56.0,-100.00,East,101,2.0,5.0,60,-99.99,,,-99.99,,2015-07-06 18:54:00,
2015-07-06 11:03:00,71.0,56.0,-100.00,East,101,2.0,5.0,60,-99.99,,,-99.99,,2015-07-06 19:03:00,
2015-07-06 11:13:00,71.0,56.0,-100.00,East,101,2.0,5.0,60,-99.99,,,-99.99,,2015-07-06 19:13:00,
2015-07-06 11:23:00,71.0,56.0,-100.00,East,101,2.0,5.0,60,-99.99,,,-99.99,,2015-07-06 19:23:00,
2015-07-06 11:54:00,73.0,56.0,-100.00,East,100,3.0,6.0,55,-99.99,,,-99.99,,2015-07-06 19:54:00,
2015-07-06 12:03:00,73.0,56.0,-100.00,East,100,3.0,6.0,55,-99.99,,,-99.99,,2015-07-06 20:03:00,
2015-07-06 12:13:00,73.0,56.0,-100.00,East,100,3.0,6.0,55,-99.99,,,-99.99,,2015-07-06 20:13:00,
2015-07-06 12:23:00,73.0,56.0,-100.00,East,100,3.0,6.0,55,-99.99,,,-99.99,,2015-07-06 20:23:00,
2015-07-06 12:54:00,76.0,54.0,-100.00,SSE,156,4.0,8.0,46,-99.99,,,-99.99,,2015-07-06 20:54:00,
2015-07-06 13:03:00,76.0,54.0,-100.00,SSE,156,4.0,8.0,46,-99.99,,,-99.99,,2015-07-06 21:03:00,
2015-07-06 13:12:00,76.0,54.0,-100.00,SSE,156,4.0,8.0,46,-99.99,,,-99.99,,2015-07-06 21:12:00,
2015-07-06 13:22:00,76.0,54.0,-100.00,SSE,156,4.0,8.0,46,-99.99,,,-99.99,,2015-07-06 21:22:00,